Wind_Speed
26 23 22 21 21 22 23 23 22 23 24 25 27 26 26 26 26 26 26 25 26 26 25 25 25 25 25 25 24 25 25 25 24 24 24 25 25 26 26 27 28 29 29 30
28 26 25 25 24 24 24 24 24 24 25 26 28 27 28 29 29 29 28 27 27 27 26 26 26 26 26 26 27 27 27 27 27 27 27 27 28 28 28 29 30 31 31 30
28 26 26 26 25 25 25 26 25 25 26 28 29 30 30 30 30 30 29 28 28 28 27 27 27 27 27 28 28 29 30 29 29 29 29 30 31 31 32 32 32 33 32 31
28 27 27 26 25 26 26 26 26 27 28 29 30 32 32 31 30 30 30 29 28 28 28 28 29 29 29 30 30 31 32 33 32 32 32 33 33 34 34 34 35 35 34 34
28 28 28 26 27 27 27 28 28 29 29 30 30 31 32 32 31 31 31 30 29 29 30 30 31 31 31 32 33 33 34 35 35 34 34 35 35 35 35 36 36 36 35 35
30 30 29 29 29 27 29 31 30 30 30 31 30 30 30 31 32 33 32 31 31 31 31 32 33 33 33 33 34 34 35 36 37 37 37 37 37 37 37 37 38 37 37 37
32 31 30 31 31 29 30 32 31 30 30 31 31 31 32 33 33 33 33 32 32 32 32 33 34 34 35 36 36 36 37 37 38 38 38 38 38 39 39 38 38 38 37 38
32 31 31 32 31 31 31 32 32 32 32 32 32 32 33 33 33 33 32 32 32 33 33 34 34 35 36 37 37 38 38 38 38 39 39 39 40 40 40 40 39 38 38 38
33 33 33 32 33 33 33 33 33 33 33 33 33 34 33 33 33 33 32 32 33 34 34 34 35 36 37 37 37 38 39 39 39 40 40 41 42 42 40 40 39 39 39 38
33 33 34 35 34 33 33 34 34 34 33 32 32 33 33 34 34 34 34 35 35 35 35 35 36 37 37 38 38 39 39 40 40 41 41 41 41 41 41 41 41 41 39 39
35 34 34 34 34 33 34 34 34 34 34 33 33 33 33 33 34 35 35 35 35 35 36 36 37 37 38 39 39 40 40 40 40 41 41 40 41 41 41 42 42 40 39 39
34 35 34 33 33 33 34 35 35 34 34 34 34 34 35 35 36 36 36 36 36 36 36 37 37 38 39 39 40 40 40 40 41 41 41 40 40 40 40 40 40 39 39 39
33 33 34 35 35 34 33 33 34 35 35 35 35 35 35 35 36 36 36 36 36 36 37 37 37 38 38 39 39 40 40 40 40 40 39 38 39 40 40 39 38 38 39 39
35 35 35 36 36 35 34 33 34 34 34 34 35 35 35 36 36 35 36 36 36 37 37 37 37 37 38 38 38 38 38 38 39 38 38 38 38 38 38 38 38 38 38 39
36 36 36 36 36 35 34 34 34 34 35 34 34 34 34 35 35 35 36 36 37 37 37 37 37 37 37 37 37 37 37 37 37 38 38 38 37 37 38 38 38 38 38 38
35 35 36 35 35 34 34 34 34 34 34 34 34 33 34 34 35 35 36 36 36 36 36 36 37 37 37 37 36 37 37 37 37 37 37 36 36 37 37 37 37 37 37 37
34 35 35 34 34 34 33 33 33 33 33 33 33 33 33 34 34 35 35 35 36 36 36 36 36 36 37 36 36 36 37 36 36 35 35 35 35 36 36 36 36 37 36 36
32 33 33 33 34 33 33 32 32 32 32 32 32 32 32 31 31 32 32 33 34 34 34 35 35 36 37 36 36 36 36 36 35 34 34 35 35 35 35 36 36 36 36 35
30 31 31 31 31 31 31 31 31 31 30 30 30 30 29 29 30 30 31 31 32 32 32 33 34 35 35 35 35 35 35 35 34 34 34 34 34 35 35 35 35 35 35 34
28 28 28 28 29 29 29 29 29 29 29 29 28 28 28 28 28 29 29 29 30 31 31 32 32 31 31 32 32 32 33 33 33 33 34 34 34 34 34 34 34 34 34 33
25 25 25 25 25 26 26 26 27 27 27 27 27 27 28 28 28 28 28 29 29 30 30 29 29 30 30 30 31 31 31 31 31 32 32 32 33 33 33 33 33 32 32 32
23 23 23 24 25 25 25 25 26 26 26 26 27 27 28 28 28 28 29 29 29 29 29 29 30 29 30 30 31 31 31 30 31 31 32 32 33 33 33 33 32 31 32 32
22 22 22 22 22 23 23 24 24 25 25 26 27 27 27 27 27 28 28 29 28 29 29 29 30 30 30 31 31 31 31 30 31 31 32 32 32 32 31 31 31 32 32 31
21 21 21 20 21 21 22 23 23 23 24 25 26 26 27 27 27 28 28 28 28 29 29 30 29 29 30 30 31 31 30 31 31 31 31 31 31 31 30 30 30 31 32 32
18 18 19 19 19 20 20 21 22 23 24 24 25 25 25 26 27 27 27 27 28 28 29 29 29 30 30 30 30 30 30 30 30 30 31 31 31 30 30 30 31 32 32 31
17 17 17 18 18 18 19 20 21 22 22 23 24 24 25 25 26 27 27 27 28 28 29 29 29 29 29 29 29 29 29 29 29 30 31 31 30 30 31 31 32 32 32 31
16 16 17 17 17 18 19 20 21 22 22 23 23 24 24 25 25 26 26 27 28 29 29 29 29 29 29 29 29 29 29 29 29 30 30 31 31 31 31 32 31 31 31 30
Wind_Direction
242 240 241 246 253 255 256 255 257 261 264 266 271 275 277 277 278 278 278 279 279 280 280 280 282 284 284 284 284 285 286 287 287 288 288 289 291 294 296 296 295 295 295 296
245 246 246 248 252 256 258 260 259 259 260 264 268 269 272 275 277 278 278 278 278 277 278 278 280 281 281 283 285 286 285 286 287 290 292 292 293 295 296 297 297 297 295 294
246 247 250 249 251 253 257 257 258 261 262 263 266 269 273 274 275 276 277 278 278 278 276 277 278 280 280 281 283 284 286 286 287 289 290 291 293 293 294 295 296 296 293 292
250 249 250 252 252 255 258 258 259 261 264 265 269 272 275 276 276 276 277 276 275 276 275 277 279 280 280 279 280 283 284 286 286 286 287 288 290 291 292 293 293 293 292 291
250 252 253 253 255 257 259 259 259 261 264 267 269 272 274 277 277 276 276 275 275 277 277 278 279 279 279 279 280 281 283 283 285 284 285 286 288 289 290 291 291 291 291 290
249 251 252 254 257 260 261 261 264 265 266 268 269 270 272 274 275 276 275 275 276 278 278 277 278 279 280 280 281 282 282 283 283 283 284 286 287 288 290 291 289 289 290 291
250 251 253 255 257 258 258 261 265 267 269 270 269 270 270 272 275 277 277 277 277 278 277 278 278 279 280 280 281 282 284 284 284 285 286 286 288 289 290 290 290 290 290 291
254 253 252 256 257 259 261 264 264 265 266 268 270 270 271 272 276 278 278 277 277 278 279 279 279 279 279 280 281 282 284 284 286 286 286 287 288 288 288 288 289 290 291 291
254 254 256 257 257 259 262 263 264 266 267 269 270 270 272 274 275 277 277 278 279 279 280 279 279 279 279 280 281 282 283 284 285 285 286 287 287 287 287 288 289 289 290 292
252 253 254 256 257 257 259 262 265 267 269 270 271 271 273 275 275 277 279 280 280 280 280 280 280 281 282 283 282 282 283 285 285 286 287 287 286 287 287 289 290 291 291 292
252 253 253 255 257 257 258 261 265 268 269 271 272 273 274 276 278 279 279 280 280 280 280 281 281 281 281 282 282 283 284 285 286 286 286 286 286 286 287 289 291 291 292 293
252 252 254 256 258 258 259 261 264 267 269 270 271 272 274 276 277 278 279 279 279 280 281 282 283 283 282 282 283 284 284 284 285 286 286 286 287 288 288 289 289 290 291 292
250 252 256 258 259 260 260 262 265 268 269 270 271 272 274 276 277 278 278 279 280 281 281 282 283 284 285 284 283 284 283 284 286 287 287 287 288 289 289 289 290 291 292 292
251 254 256 257 259 261 263 265 267 268 270 271 272 273 274 276 277 278 279 279 280 281 282 283 284 284 285 284 284 286 287 286 286 287 287 288 290 291 291 291 291 291 291 292
251 253 256 258 260 262 264 265 267 269 271 272 272 274 275 276 277 277 278 278 279 280 282 283 284 285 285 285 285 286 287 287 287 287 287 287 289 291 293 293 292 292 292 293
253 255 257 259 261 262 264 266 268 270 272 274 274 274 275 276 276 277 278 280 280 281 282 283 284 284 284 285 285 285 286 287 287 287 288 289 290 291 292 292 293 293 293 293
255 256 258 260 262 264 265 267 269 270 272 274 274 274 275 276 277 277 279 280 281 282 282 283 284 284 284 284 285 286 286 285 286 287 288 290 292 292 292 293 293 294 293 293
257 259 260 261 262 263 264 266 268 269 271 273 275 276 276 278 279 279 280 281 282 282 284 285 285 285 285 284 283 284 285 286 287 288 290 291 291 292 293 293 293 293 293 293
259 259 260 262 263 264 266 267 268 270 271 273 275 275 277 279 281 282 282 283 284 284 286 287 287 287 286 285 284 285 286 288 289 290 290 290 291 292 292 293 293 293 293 293
259 259 260 262 263 264 265 266 267 269 270 273 274 275 276 278 280 282 283 284 286 287 288 288 289 288 288 288 288 289 290 291 291 291 291 291 291 292 292 292 292 292 293 293
261 262 264 264 264 265 266 267 267 269 270 272 274 275 277 278 280 282 284 286 288 289 290 291 291 290 290 291 292 292 292 293 293 293 292 292 293 293 293 293 293 292 292 293
261 263 264 264 264 265 266 267 269 270 272 273 276 276 277 278 280 282 284 287 289 291 291 291 291 292 293 293 294 295 295 295 294 294 294 294 294 294 292 292 292 293 293 293
261 263 263 262 264 265 266 269 271 272 274 275 276 277 278 280 282 283 285 287 289 290 291 291 292 293 293 293 294 295 295 295 295 295 295 295 295 294 293 293 293 293 293 293
262 261 262 264 265 266 268 270 272 274 276 278 278 279 279 281 282 284 285 287 289 291 292 293 293 294 294 294 294 295 295 296 295 295 296 296 296 295 295 295 294 294 293 293
259 260 263 265 267 269 271 272 274 277 279 280 280 280 281 282 284 286 286 288 291 292 292 293 294 294 295 296 296 296 297 298 297 296 296 296 296 296 296 296 295 294 294 293
257 262 263 264 268 272 274 275 276 279 281 283 283 283 284 285 286 288 290 292 292 293 294 293 294 294 295 297 298 299 299 298 296 296 297 297 296 297 296 295 295 295 294 293
261 264 266 268 272 274 277 279 281 283 284 283 283 284 285 286 287 290 293 294 295 295 295 294 295 295 295 296 297 298 299 299 297 296 296 297 297 297 297 297 297 296 297 296
Height
5884 5886 5889 5890 5891 5892 5892 5893 5894 5894 5892 5890 5888 5888 5887 5887 5886 5886 5885 5885 5885 5883 5883 5882 5882 5881 5880 5880 5879 5878 5877 5876 5875 5873 5872 5871 5870 5868 5867 5865 5863 5861 5859 5857
5877 5880 5881 5882 5884 5886 5887 5887 5886 5886 5886 5884 5882 5881 5880 5880 5880 5880 5879 5879 5879 5878 5877 5877 5876 5875 5874 5874 5873 5871 5870 5869 5868 5867 5866 5864 5863 5862 5860 5858 5856 5854 5852 5850
5870 5873 5874 5875 5878 5879 5879 5879 5880 5880 5879 5877 5876 5874 5874 5874 5874 5873 5873 5872 5872 5871 5871 5871 5870 5869 5868 5868 5867 5865 5864 5863 5861 5860 5858 5857 5856 5854 5853 5851 5849 5846 5844 5842
5863 5866 5866 5871 5871 5872 5871 5872 5872 5872 5871 5870 5869 5868 5867 5867 5867 5866 5865 5865 5864 5864 5864 5863 5863 5862 5862 5860 5859 5858 5857 5856 5854 5853 5851 5849 5848 5846 5844 5842 5840 5838 5836 5834
5856 5857 5859 5863 5863 5864 5864 5864 5865 5864 5863 5862 5862 5861 5859 5859 5859 5858 5858 5857 5857 5856 5856 5856 5855 5854 5853 5852 5851 5850 5849 5848 5846 5844 5843 5841 5839 5837 5835 5833 5831 5829 5827 5824
5848 5850 5852 5855 5855 5856 5857 5855 5856 5856 5855 5855 5854 5854 5853 5851 5850 5850 5849 5849 5849 5848 5848 5848 5847 5846 5845 5844 5843 5841 5840 5839 5837 5835 5833 5831 5829 5828 5826 5824 5822 5819 5817 5815
5839 5841 5844 5845 5845 5847 5849 5848 5847 5847 5847 5846 5846 5846 5845 5843 5842 5842 5841 5841 5840 5840 5839 5839 5838 5837 5836 5835 5834 5833 5831 5829 5828 5825 5823 5821 5819 5817 5815 5813 5811 5809 5807 5805
5831 5833 5837 5836 5837 5838 5838 5839 5839 5838 5837 5837 5837 5836 5835 5835 5834 5833 5832 5832 5831 5831 5830 5830 5829 5827 5826 5825 5824 5823 5822 5820 5818 5816 5814 5811 5810 5807 5803 5802 5800 5798 5796 5794
5823 5825 5826 5827 5828 5828 5829 5829 5829 5829 5828 5827 5827 5827 5827 5826 5826 5825 5823 5823 5822 5822 5821 5820 5819 5818 5816 5815 5814 5813 5811 5810 5808 5806 5804 5802 5799 5797 5793 5791 5789 5787 5785 5783
5813 5815 5816 5817 5818 5820 5820 5820 5820 5820 5819 5819 5819 5818 5818 5817 5817 5816 5815 5814 5813 5812 5811 5810 5809 5808 5807 5805 5804 5803 5801 5799 5797 5795 5793 5791 5788 5786 5783 5781 5779 5777 5774 5772
5804 5805 5806 5807 5809 5810 5811 5811 5811 5811 5811 5811 5810 5810 5810 5809 5808 5807 5806 5805 5804 5803 5802 5801 5799 5798 5796 5795 5793 5792 5790 5788 5786 5784 5782 5780 5777 5775 5773 5771 5768 5766 5764 5761
5794 5796 5797 5798 5800 5801 5801 5802 5802 5803 5803 5802 5802 5801 5801 5800 5799 5798 5796 5795 5794 5793 5792 5791 5789 5788 5786 5785 5783 5781 5780 5778 5776 5773 5771 5769 5767 5764 5762 5760 5757 5755 5753 5751
5784 5785 5788 5789 5790 5791 5792 5793 5793 5794 5793 5793 5793 5792 5791 5790 5789 5788 5787 5786 5784 5783 5782 5781 5779 5777 5776 5774 5772 5771 5769 5767 5765 5763 5760 5758 5756 5754 5751 5749 5746 5744 5742 5739
5775 5777 5779 5780 5781 5782 5782 5784 5784 5784 5784 5783 5783 5783 5782 5781 5780 5779 5778 5776 5775 5773 5772 5770 5769 5767 5766 5764 5762 5760 5758 5756 5754 5752 5750 5747 5745 5743 5740 5738 5736 5733 5731 5729
5766 5768 5769 5770 5771 5773 5774 5774 5775 5775 5774 5774 5774 5773 5772 5771 5770 5769 5768 5766 5765 5763 5762 5760 5759 5757 5755 5753 5752 5750 5747 5745 5743 5741 5739 5737 5734 5732 5729 5727 5725 5722 5720 5718
5757 5759 5760 5761 5763 5764 5764 5765 5765 5765 5765 5764 5764 5763 5762 5761 5760 5759 5758 5756 5755 5753 5752 5750 5748 5747 5745 5743 5741 5739 5737 5735 5733 5731 5728 5726 5724 5721 5719 5716 5714 5711 5709 5707
5748 5750 5751 5752 5753 5754 5755 5755 5756 5756 5755 5755 5754 5754 5753 5752 5751 5749 5748 5746 5745 5743 5742 5740 5738 5736 5734 5732 5730 5728 5726 5724 5722 5720 5718 5716 5713 5711 5708 5706 5703 5701 5698 5696
5740 5741 5742 5743 5744 5745 5746 5746 5746 5746 5746 5746 5745 5744 5744 5742 5741 5740 5738 5737 5735 5734 5732 5730 5728 5726 5724 5722 5720 5718 5716 5714 5712 5710 5708 5705 5703 5701 5698 5696 5693 5690 5688 5685
5731 5732 5733 5734 5735 5736 5736 5737 5737 5737 5737 5737 5736 5736 5735 5734 5733 5731 5730 5728 5726 5724 5723 5720 5718 5716 5713 5711 5710 5708 5706 5704 5702 5700 5698 5695 5693 5690 5688 5685 5683 5680 5678 5675
5724 5724 5725 5726 5727 5727 5728 5728 5729 5729 5729 5728 5728 5727 5727 5726 5724 5723 5721 5719 5718 5716 5713 5711 5709 5706 5704 5702 5700 5698 5696 5694 5692 5689 5687 5685 5683 5680 5678 5675 5673 5670 5668 5665
5717 5717 5718 5718 5719 5719 5720 5720 5721 5721 5721 5720 5720 5719 5718 5717 5716 5715 5713 5712 5710 5707 5705 5702 5700 5698 5695 5693 5690 5688 5686 5684 5682 5679 5677 5675 5673 5670 5668 5666 5663 5660 5658 5656
5710 5711 5711 5711 5711 5712 5713 5713 5713 5713 5713 5712 5712 5711 5710 5709 5708 5707 5705 5704 5702 5699 5697 5694 5692 5690 5687 5684 5682 5679 5677 5674 5672 5670 5668 5665 5663 5661 5658 5656 5654 5651 5649 5646
5703 5704 5704 5704 5704 5705 5705 5705 5706 5705 5705 5705 5704 5703 5702 5701 5700 5699 5697 5696 5694 5691 5689 5686 5684 5682 5679 5676 5673 5671 5668 5666 5663 5661 5658 5656 5653 5651 5648 5646 5644 5642 5639 5637
5697 5698 5697 5697 5698 5698 5699 5699 5698 5698 5698 5697 5696 5695 5694 5693 5692 5691 5689 5687 5685 5683 5681 5678 5676 5673 5670 5667 5664 5662 5659 5656 5654 5651 5649 5646 5644 5641 5639 5637 5634 5632 5629 5627
5691 5691 5692 5692 5692 5692 5692 5692 5692 5692 5691 5690 5689 5688 5687 5686 5684 5683 5681 5679 5677 5674 5672 5670 5667 5664 5661 5659 5656 5653 5650 5647 5645 5642 5640 5637 5634 5632 5630 5627 5625 5622 5620 5617
5686 5686 5686 5686 5686 5686 5686 5686 5686 5685 5684 5683 5682 5681 5680 5678 5677 5675 5673 5671 5669 5666 5664 5661 5658 5656 5653 5650 5647 5644 5641 5639 5636 5633 5630 5628 5625 5622 5620 5617 5615 5612 5610 5607
5681 5681 5681 5681 5681 5681 5680 5680 5679 5679 5677 5676 5675 5674 5672 5671 5669 5667 5665 5663 5660 5658 5655 5652 5649 5647 5644 5641 5638 5636 5633 5630 5627 5624 5621 5618 5615 5613 5610 5607 5605 5602 5600 5597